Weather History for K0A9 - January, 2014

Change the Weather History Date:

Friday, January 10, 2014

  Actual Average (KTRI) Record (KTRI)
Temperature  
Mean Temperature 48 °F 35 °F  
Max Temperature 57 °F 45 °F 66 °F (1957)
Min Temperature 39 °F 25 °F -9 °F (1970)
Degree Days  
Heating Degree Days 17 30  
Month to date heating degree days 300  
Since 1 July heating degree days 2029  
Cooling Degree Days 0 0  
Month to date cooling degree days 0  
Year to date cooling degree days 0  
Moisture  
Dew Point 43 °F    
Average Humidity 90    
Maximum Humidity 100    
Minimum Humidity 70    
Precipitation  
Precipitation 0.00 in 0.11 in 1.72 in (2008)
Month to date precipitation 1.05  
Year to date precipitation 1.05  
Snow  
Snow 0.00 in 0.10 in - ()
Month to date snowfall 1.4  
Since 1 July snowfall 4.1  
Snow Depth -    
Sea Level Pressure  
Sea Level Pressure 30.17 in    
Wind  
Wind Speed 4 mph (East)    
Max Wind Speed 8 mph    
Max Gust Speed -    
Visibility 9 miles    
Events Rain    
T = Trace of Precipitation, MM = Missing Value Source: NWS Daily Summary

Daily Weather History Graph

Daily Weather History Graph

Search for Another Location

Airport or City:

Trip Planner

Search our weather history database for the weather conditions in past years. The results will help you decide how hot, cold, wet, or windy it might be!

Date:

Astronomy

Jan. 10, 2014 Rise Set
Actual Time 7:40 AM EST 5:32 PM EST
Civil Twilight 7:12 AM EST 6:00 PM EST
Nautical Twilight 6:40 AM EST 6:32 PM EST
Astronomical Twilight 6:09 AM EST 7:03 PM EST
Moon 1:33 PM EST (1/10) 2:49 AM EST (1/10)
Length of Visible Light 10h 48m
Length of Day
9h 51m
Waxing Gibbous, 75% of the Moon is Illuminated
Jan 10
Waxing Gibbous
Jan 15
Full
Jan 24
Last Quarter
Jan 30
New
Feb 6
First Quarter

Hourly Weather History & Observations

Time (EST) Temp. Windchill Dew Point Humidity Pressure Visibility Wind Dir Wind Speed Gust Speed Precip Events Conditions
12:15 AM 41.0 °F 36.4 °F 32.0 °F 70% 30.34 in 10.0 mi East 6.9 mph - N/A   Overcast
12:35 AM 41.0 °F 37.1 °F 33.8 °F 76% 30.33 in 10.0 mi ESE 5.8 mph - N/A   Overcast
12:55 AM 41.0 °F 37.1 °F 33.8 °F 76% 30.32 in 10.0 mi ESE 5.8 mph - N/A   Overcast
1:15 AM 42.8 °F 39.3 °F 33.8 °F 70% 30.32 in 10.0 mi ESE 5.8 mph - N/A   Overcast
1:35 AM 42.8 °F 38.0 °F 35.6 °F 76% 30.31 in 10.0 mi East 8.1 mph - N/A   Overcast
1:55 AM 42.8 °F 40.1 °F 35.6 °F 76% 30.32 in 10.0 mi East 4.6 mph - N/A   Light Drizzle
2:15 AM 42.8 °F 38.6 °F 35.6 °F 76% 30.31 in 10.0 mi East 6.9 mph - N/A   Overcast
2:35 AM 41.0 °F 39.0 °F 35.6 °F 81% 30.31 in 10.0 mi ESE 3.5 mph - N/A   Overcast
2:55 AM 41.0 °F - 35.6 °F 81% 30.31 in 9.0 mi Calm Calm - N/A Rain Light Rain
3:15 AM 41.0 °F 39.0 °F 37.4 °F 87% 30.30 in 10.0 mi East 3.5 mph - N/A   Light Drizzle
3:35 AM 41.0 °F 38.0 °F 37.4 °F 87% 30.30 in 10.0 mi ENE 4.6 mph - N/A Rain Light Rain
3:55 AM 41.0 °F - 37.4 °F 87% 30.30 in 10.0 mi Calm Calm - N/A Rain Light Rain
4:15 AM 41.0 °F 39.0 °F 39.2 °F 93% 30.29 in 10.0 mi ENE 3.5 mph - N/A   Light Drizzle
4:35 AM 39.2 °F 35.9 °F 39.2 °F 100% 30.28 in 10.0 mi NE 4.6 mph - N/A   Overcast
4:55 AM 39.2 °F 35.9 °F 39.2 °F 100% 30.28 in 10.0 mi Variable 4.6 mph - N/A   Light Drizzle
5:15 AM 41.0 °F 36.4 °F 39.2 °F 93% 30.28 in 10.0 mi ENE 6.9 mph - N/A   Light Drizzle
5:35 AM 41.0 °F 39.0 °F 39.2 °F 93% 30.28 in 10.0 mi NE 3.5 mph - N/A   Overcast
5:55 AM 41.0 °F 38.0 °F 39.2 °F 93% 30.28 in 5.0 mi NE 4.6 mph - N/A Rain Rain
6:15 AM 41.0 °F 39.0 °F 39.2 °F 93% 30.28 in 8.0 mi NE 3.5 mph - N/A Rain Rain
6:35 AM 41.0 °F 38.0 °F 41.0 °F 100% 30.27 in 6.0 mi East 4.6 mph - N/A Rain Rain
6:55 AM 41.0 °F - 39.2 °F 93% 30.28 in 10.0 mi Calm Calm - N/A   Light Drizzle
7:15 AM 41.0 °F 39.0 °F 41.0 °F 100% 30.27 in 10.0 mi ENE 3.5 mph - N/A   Mostly Cloudy
7:35 AM 41.0 °F - 39.2 °F 93% 30.28 in 10.0 mi Calm Calm - N/A   Light Drizzle
7:55 AM 41.0 °F 39.0 °F 41.0 °F 100% 30.27 in 10.0 mi NE 3.5 mph - N/A Rain Light Rain
8:15 AM 41.0 °F 38.0 °F 41.0 °F 100% 30.27 in 10.0 mi ENE 4.6 mph - N/A   Overcast
8:35 AM 42.8 °F 41.1 °F 42.8 °F 100% 30.27 in 10.0 mi NE 3.5 mph - N/A   Overcast
8:55 AM 42.8 °F - 42.8 °F 100% 30.28 in 10.0 mi Calm Calm - N/A   Light Drizzle
9:15 AM 42.8 °F - 42.8 °F 100% 30.28 in 7.0 mi Calm Calm - N/A Rain Light Rain
9:35 AM 44.6 °F - 44.6 °F 100% 30.28 in 3.0 mi Calm Calm - N/A Rain Light Rain
9:55 AM 42.8 °F - 42.8 °F 100% 30.28 in 1.8 mi Calm Calm - N/A Rain Light Rain
10:15 AM 44.6 °F 42.2 °F 44.6 °F 100% 30.28 in 2.0 mi East 4.6 mph - N/A Rain Rain
10:35 AM 46.4 °F 45.2 °F 44.6 °F 93% 30.27 in 6.0 mi ENE 3.5 mph - N/A   Mostly Cloudy
10:55 AM 46.4 °F 45.2 °F 46.4 °F 100% 30.27 in 10.0 mi NNE 3.5 mph - N/A   Overcast
11:15 AM 46.4 °F 43.5 °F 46.4 °F 100% 30.25 in 10.0 mi East 5.8 mph - N/A   Overcast
11:35 AM 48.2 °F - 48.2 °F 100% 30.23 in 10.0 mi Calm Calm - N/A   Overcast
11:55 AM 48.2 °F - 48.2 °F 100% 30.22 in 10.0 mi Calm Calm - N/A   Overcast
12:15 PM 51.8 °F - 48.2 °F 88% 30.21 in 10.0 mi Calm Calm - N/A   Overcast
12:35 PM 51.8 °F - 48.2 °F 88% 30.19 in 10.0 mi ENE 4.6 mph - N/A   Overcast
12:55 PM 53.6 °F - 48.2 °F 82% 30.17 in 10.0 mi East 4.6 mph - N/A   Overcast
1:15 PM 53.6 °F - 48.2 °F 82% 30.15 in 10.0 mi ESE 4.6 mph - N/A   Overcast
1:35 PM 53.6 °F - 48.2 °F 82% 30.14 in 10.0 mi East 5.8 mph - N/A   Overcast
1:55 PM 53.6 °F - 48.2 °F 82% 30.13 in 10.0 mi ESE 4.6 mph - N/A   Overcast
2:15 PM 55.4 °F - 50.0 °F 82% 30.12 in 0.2 mi ESE 5.8 mph - N/A Rain Light Rain
2:35 PM 55.4 °F - 50.0 °F 82% 30.11 in 0.2 mi ESE 4.6 mph - N/A   Haze
2:55 PM 57.2 °F - 50.0 °F 77% 30.10 in 10.0 mi East 4.6 mph - N/A   Overcast
3:15 PM 57.2 °F - 50.0 °F 77% 30.09 in 10.0 mi ESE 3.5 mph - N/A   Mostly Cloudy
3:35 PM 57.2 °F - 50.0 °F 77% 30.09 in 10.0 mi ESE 5.8 mph - N/A   Overcast
3:55 PM 57.2 °F - 48.2 °F 72% 30.09 in 10.0 mi SE 8.1 mph - N/A   Overcast
4:15 PM 55.4 °F - 48.2 °F 77% 30.08 in 10.0 mi East 6.9 mph - N/A   Scattered Clouds
4:35 PM 55.4 °F - 48.2 °F 77% 30.07 in 10.0 mi East 4.6 mph - N/A   Mostly Cloudy
4:55 PM 55.4 °F - 48.2 °F 77% 30.07 in 10.0 mi East 3.5 mph - N/A   Mostly Cloudy
5:15 PM 53.6 °F - 48.2 °F 82% 30.07 in 10.0 mi Calm Calm - N/A   Scattered Clouds
5:35 PM 51.8 °F - 48.2 °F 88% 30.05 in 10.0 mi East 4.6 mph - N/A   Clear
5:55 PM 51.8 °F - 48.2 °F 88% 30.04 in 10.0 mi East 4.6 mph - N/A   Clear
6:15 PM 50.0 °F - 46.4 °F 87% 30.04 in 10.0 mi Calm Calm - N/A   Clear
6:35 PM 50.0 °F - 46.4 °F 87% 30.04 in 10.0 mi ESE 3.5 mph - N/A   Clear
6:55 PM 50.0 °F - 46.4 °F 87% 30.04 in 10.0 mi Calm Calm - N/A   Clear
7:15 PM 46.4 °F 44.3 °F 44.6 °F 93% 30.05 in 10.0 mi ENE 4.6 mph - N/A   Clear
7:35 PM 46.4 °F 44.3 °F 46.4 °F 100% 30.04 in 10.0 mi East 4.6 mph - N/A   Clear
7:55 PM 44.6 °F 42.2 °F 44.6 °F 100% 30.05 in 10.0 mi ENE 4.6 mph - N/A   Clear
8:15 PM 44.6 °F - 44.6 °F 100% 30.05 in 10.0 mi Calm Calm - N/A   Clear
8:35 PM 44.6 °F - 42.8 °F 93% 30.04 in 10.0 mi Calm Calm - N/A   Clear
8:55 PM 42.8 °F 39.3 °F 42.8 °F 100% 30.02 in 10.0 mi ENE 5.8 mph - N/A   Clear
9:15 PM 44.6 °F 41.4 °F 44.6 °F 100% 30.01 in 10.0 mi East 5.8 mph - N/A   Clear
9:35 PM 48.2 °F - 46.4 °F 93% 30.01 in 10.0 mi ENE 6.9 mph - N/A   Clear
9:55 PM 50.0 °F - 46.4 °F 87% 30.00 in 10.0 mi Variable 3.5 mph - N/A   Mostly Cloudy
10:15 PM 46.4 °F - 44.6 °F 93% 30.00 in 10.0 mi Calm Calm - N/A   Mostly Cloudy
10:35 PM 46.4 °F - 44.6 °F 93% 30.00 in 10.0 mi Calm Calm - N/A   Mostly Cloudy
10:55 PM 48.2 °F - 46.4 °F 93% 29.99 in 10.0 mi Calm Calm - N/A   Overcast
11:15 PM 46.4 °F - 46.4 °F 100% 29.98 in 10.0 mi Calm Calm - N/A   Overcast
11:35 PM 46.4 °F 45.2 °F 46.4 °F 100% 29.97 in 10.0 mi ENE 3.5 mph - N/A   Mostly Cloudy
11:55 PM 48.2 °F - 46.4 °F 93% 29.96 in 10.0 mi ENE 3.5 mph - N/A   Mostly Cloudy